User: anonymous
Location: ASU Dark Sky Observatory
(36.2504°N, 81.4125°W)
Time: 02:22:21
(UTC-04:00)
Language:

ETS-7 - Orbit

View from above orbital plane
View from above orbital plane
View from above satellite
View from above satellite

Ground track
Ground track

The orbit data is extracted from the following two-line orbital elements,

1 25064U 97074B   14293.73645384  .00040131  00000-0  61532-3 0  2850
2 25064 034.9608 164.5480 0002555 217.7021 186.9066 15.53248055940663
Epoch (UTC): 20 October 2014 17:40:29
Eccentricity: 0.0002555
inclination: 34.9608°
perigee height: 405 km
apogee height: 409 km
right ascension of ascending node: 164.5480°
argument of perigee: 217.7021°
revolutions per day: 15.53248055
mean anomaly at epoch: 186.9066°
orbit number at epoch: 94066

The dashed part of the orbit path shows where the satellite is in the earth's shadow,  

DLR